Location: Villingen
(48.0639°N, 8.4609°E)
Time: 13:30:55
(UTC+01:00)

Tiangong 2 - Pass Details

Date: 25 November 2017
Orbit: 386 x 390 km, 42.8° (Epoch: 11 December)

Event Time Altitude Azimuth Distance (km) Brightness Sun altitude
Rises 07:07:41 0° 204° (SSW) 2,266 5.0 -6.7°
Maximum altitude 07:11:52 10° 151° (SSE) 1,416 4.8 -6.1°
Drops below altitude 10° 07:12:00 10° 148° (SSE) 1,417 4.9 -6.0°
Sets 07:16:04 0° 98° (E) 2,278 6.7 -5.4°
